DW4078 Weather Reports


Display with metric or nautical units.
time (UTC)temp
F
wind
direction
speed
MPH
gust
MPH
rain 1hr
in
rain 24hr
in
rain mn
in
humidity
%
barometer
mb
20260504202202 73 193 6.0 17.0 0.00 0.00 0.00 45 1004.7
20260504202102 74 191 6.0 17.0 0.00 0.00 0.00 45 1004.9
20260504201802 73 196 6.0 14.0 0.00 0.00 0.00 47 1004.9
20260504201602 73 202 6.0 14.0 0.00 0.00 0.00 46 1004.9
20260504201502 73 202 6.0 14.0 0.00 0.00 0.00 46 1004.9
20260504201102 74 197 5.0 14.0 0.00 0.00 0.00 47 1005.0
20260504201002 74 196 5.0 14.0 0.00 0.00 0.00 46 1005.0
20260504200902 74 182 5.0 14.0 0.00 0.00 0.00 46 1005.0
20260504200602 74 190 5.0 15.0 0.00 0.00 0.00 47 1005.0
20260504200423 73 191 5.0 15.0 0.00 0.00 0.00 47 1004.9
20260504195702 73 192 6.0 15.0 0.00 0.00 0.00 46 1005.0
20260504195623 73 183 6.0 15.0 0.00 0.00 0.00 45 1005.1
20260504195502 73 179 6.0 16.0 0.00 0.00 0.00 46 1005.2
20260504195402 73 179 6.0 16.0 0.00 0.00 0.00 46 1005.1
20260504195323 73 176 6.0 16.0 0.00 0.00 0.00 45 1005.2
20260504195202 73 174 6.0 16.0 0.00 0.00 0.00 46 1005.1
20260504195102 73 174 6.0 16.0 0.00 0.00 0.00 45 1005.2
20260504194902 73 169 6.0 16.0 0.00 0.00 0.00 46 1005.2
20260504194602 73 179 5.0 16.0 0.00 0.00 0.00 47 1005.0
20260504194302 73 177 5.0 13.0 0.00 0.00 0.00 47 1005.0
20260504194002 73 179 5.0 13.0 0.00 0.00 0.00 46 1005.1
20260504193923 73 177 5.0 13.0 0.00 0.00 0.00 46 1005.1
20260504193602 73 189 5.0 14.0 0.00 0.00 0.00 47 1005.4
20260504193323 73 196 5.0 14.0 0.00 0.00 0.00 47 1005.5
20260504193212 73 194 6.0 14.0 0.00 0.00 0.00 44 1005.6
20260504193103 72 194 6.0 14.0 0.00 0.00 0.00 47 1005.5
20260504192923 72 202 6.0 14.0 0.00 0.00 0.00 46 1005.6
20260504192602 72 198 6.0 13.0 0.00 0.00 0.00 49 1005.5
20260504192502 72 200 6.0 13.0 0.00 0.00 0.00 48 1005.4
20260504192402 72 200 6.0 13.0 0.00 0.00 0.00 47 1005.6
20260504192304 72 200 6.0 13.0 0.00 0.00 0.00 47 1005.5
20260504192102 72 206 6.0 16.0 0.00 0.00 0.00 47 1005.6
20260504191623 72 206 7.0 16.0 0.00 0.00 0.00 48 1005.7
20260504191302 71 212 7.0 16.0 0.00 0.00 0.00 48 1005.6
20260504191202 72 203 7.0 15.0 0.00 0.00 0.00 48 1005.8
20260504190802 72 179 6.0 16.0 0.00 0.00 0.00 48 1005.7
20260504190602 71 161 6.0 16.0 0.00 0.00 0.00 47 1006.0
20260504190302 71 170 6.0 16.0 0.00 0.00 0.00 50 1005.8
20260504190202 71 181 6.0 16.0 0.00 0.00 0.00 50 1005.8
20260504185823 71 187 6.0 16.0 0.00 0.00 0.00 49 1006.0
20260504185702 71 194 7.0 16.0 0.00 0.00 0.00 49 1005.9
20260504185304 72 189 6.0 16.0 0.00 0.00 0.00 48 1006.2
20260504185102 71 191 7.0 15.0 0.00 0.00 0.00 48 1006.0
20260504184902 71 201 7.0 16.0 0.00 0.00 0.00 49 1006.2
20260504184602 71 199 7.0 16.0 0.00 0.00 0.00 48 1006.1
20260504184202 71 190 6.0 16.0 0.00 0.00 0.00 48 1006.3
20260504183802 72 163 5.0 19.0 0.00 0.00 0.00 46 1006.2
20260504183723 72 157 5.0 19.0 0.00 0.00 0.00 46 1006.1
20260504183402 71 155 5.0 19.0 0.00 0.00 0.00 47 1006.2
20260504183102 72 166 5.0 19.0 0.00 0.00 0.00 47 1006.2
20260504182802 71 169 5.0 14.0 0.00 0.00 0.00 48 1006.2
20260504182623 71 169 5.0 14.0 0.00 0.00 0.00 47 1006.4
20260504182123 71 169 5.0 14.0 0.00 0.00 0.00 46 1006.2
20260504182023 72 164 4.0 14.0 0.00 0.00 0.00 45 1006.3
20260504181902 72 173 4.0 14.0 0.00 0.00 0.00 45 1006.2
20260504181802 72 180 4.0 14.0 0.00 0.00 0.00 45 1006.3
20260504181702 71 182 4.0 14.0 0.00 0.00 0.00 46 1006.2
20260504181602 71 187 4.0 14.0 0.00 0.00 0.00 46 1006.4
20260504181402 72 178 4.0 11.0 0.00 0.00 0.00 46 1006.3
20260504181002 71 170 5.0 13.0 0.00 0.00 0.00 45 1006.2
20260504180802 72 166 5.0 13.0 0.00 0.00 0.00 45 1006.5
20260504180602 71 163 5.0 15.0 0.00 0.00 0.00 46 1006.5
20260504180402 71 168 5.0 15.0 0.00 0.00 0.00 46 1006.3
20260504180002 71 168 5.0 15.0 0.00 0.00 0.00 46 1006.4
20260504175802 70 174 6.0 15.0 0.00 0.00 0.00 47 1006.6
20260504175702 70 169 6.0 15.0 0.00 0.00 0.00 48 1006.4
20260504175602 70 174 5.0 13.0 0.00 0.00 0.00 46 1006.6
20260504175502 71 174 6.0 13.0 0.00 0.00 0.00 45 1006.5
20260504175102 71 172 6.0 14.0 0.00 0.00 0.00 46 1006.5
20260504175023 71 175 6.0 14.0 0.00 0.00 0.00 46 1006.4
20260504174902 70 168 5.0 14.0 0.00 0.00 0.00 47 1006.6
20260504174702 71 177 5.0 14.0 0.00 0.00 0.00 46 1006.6
20260504174602 71 174 5.0 14.0 0.00 0.00 0.00 46 1006.7
20260504174323 71 189 4.0 13.0 0.00 0.00 0.00 47 1006.6
20260504174102 71 191 5.0 13.0 0.00 0.00 0.00 47 1006.6
20260504174002 71 187 5.0 13.0 0.00 0.00 0.00 47 1006.4
20260504173902 71 187 5.0 13.0 0.00 0.00 0.00 45 1006.5
20260504173802 70 187 5.0 13.0 0.00 0.00 0.00 47 1006.7
20260504173623 70 181 5.0 13.0 0.00 0.00 0.00 47 1006.5
20260504173502 70 178 6.0 13.0 0.00 0.00 0.00 45 1006.6
20260504172802 70 165 6.0 15.0 0.00 0.00 0.00 48 1006.9
20260504172502 70 178 5.0 15.0 0.00 0.00 0.00 47 1006.7
20260504172102 70 159 4.0 14.0 0.00 0.00 0.00 46 1006.7
20260504172002 70 156 4.0 14.0 0.00 0.00 0.00 48 1006.7
20260504171702 70 147 5.0 14.0 0.00 0.00 0.00 46 1006.9
20260504171623 70 145 5.0 14.0 0.00 0.00 0.00 48 1006.6
20260504171423 69 144 5.0 14.0 0.00 0.00 0.00 48 1006.8
20260504171302 69 141 5.0 14.0 0.00 0.00 0.00 49 1006.8
20260504171123 70 138 5.0 14.0 0.00 0.00 0.00 47 1006.7
20260504170902 70 151 4.0 14.0 0.00 0.00 0.00 47 1006.9
20260504170723 70 157 4.0 11.0 0.00 0.00 0.00 48 1006.9
20260504170602 70 162 4.0 13.0 0.00 0.00 0.00 47 1006.8
20260504170402 70 166 4.0 13.0 0.00 0.00 0.00 48 1006.7
20260504170202 69 172 5.0 13.0 0.00 0.00 0.00 48 1006.8
20260504160302 66 141 6.0 13.0 0.00 0.00 0.00 51 1007.6
20260504151102 64 164 5.0 13.0 0.00 0.00 0.00 51 1007.8
20260504150602 64 169 4.0 9.0 0.00 0.00 0.00 52 1008.0
20260504150502 65 165 4.0 9.0 0.00 0.00 0.00 52 1007.7
20260504150402 65 162 4.0 9.0 0.00 0.00 0.00 51 1007.9
20260504141102 61 188 4.0 11.0 0.00 0.00 0.00 55 1008.3
20260504140823 61 184 4.0 11.0 0.00 0.00 0.00 55 1008.3
20260504140602 61 173 4.0 10.0 0.00 0.00 0.00 55 1008.3
20260504140202 60 166 4.0 8.0 0.00 0.00 0.00 55 1008.2
20260504130802 57 176 4.0 10.0 0.00 0.00 0.00 58 1009.0
20260504130602 57 178 4.0 10.0 0.00 0.00 0.00 58 1008.9
20260504130402 56 177 4.0 10.0 0.00 0.00 0.00 59 1009.0
20260504130302 56 177 4.0 10.0 0.00 0.00 0.00 59 1008.8
20260504130202 56 178 4.0 10.0 0.00 0.00 0.00 59 1008.9
20260504130123 56 185 4.0 10.0 0.00 0.00 0.00 59 1008.7
20260504120202 52 161 4.0 13.0 0.00 0.00 0.00 63 1008.9
20260504110602 50 158 3.0 8.0 0.00 0.00 0.00 66 1008.8
20260504110502 50 161 4.0 11.0 0.00 0.00 0.00 66 1008.7
20260504110402 50 159 4.0 11.0 0.00 0.00 0.00 66 1008.6
20260504110302 50 160 4.0 11.0 0.00 0.00 0.00 65 1008.6
20260504110202 50 157 4.0 11.0 0.00 0.00 0.00 65 1008.5
20260504100602 50 140 2.0 9.0 0.00 0.00 0.00 65 1008.5
20260504100502 49 139 2.0 9.0 0.00 0.00 0.00 65 1008.6
20260504100402 50 140 2.0 6.0 0.00 0.00 0.00 65 1008.6
20260504081702 49 128 2.0 6.0 0.00 0.00 0.00 66 1009.4
20260504081602 49 130 2.0 6.0 0.00 0.00 0.00 66 1009.3
20260504081302 49 127 2.0 6.0 0.00 0.00 0.00 66 1009.4
20260504081102 49 130 2.0 6.0 0.00 0.00 0.00 65 1009.4
20260504081002 49 128 2.0 6.0 0.00 0.00 0.00 65 1009.5
20260504080902 49 126 2.0 6.0 0.00 0.00 0.00 65 1009.5
20260504080623 49 127 2.0 6.0 0.00 0.00 0.00 65 1009.4
20260504080502 49 130 2.0 6.0 0.00 0.00 0.00 66 1009.3
20260504080123 49 135 3.0 6.0 0.00 0.00 0.00 65 1009.5
20260504050602 50 139 2.0 6.0 0.00 0.00 0.00 65 1011.6
20260504050502 50 136 2.0 6.0 0.00 0.00 0.00 65 1011.7
20260504050302 50 133 2.0 4.0 0.00 0.00 0.00 65 1011.6
20260504050123 50 137 2.0 6.0 0.00 0.00 0.00 65 1011.7
20260504050002 50 136 2.0 6.0 0.00 0.00 0.00 65 1011.7
20260504045702 50 135 2.0 6.0 0.00 0.00 0.00 65 1011.7
20260504045304 50 138 2.0 6.0 0.00 0.00 0.00 64 1011.5
20260504045202 50 137 2.0 4.0 0.00 0.00 0.00 64 1011.8
20260504045102 50 134 2.0 4.0 0.00 0.00 0.00 65 1011.7
20260504044602 50 142 2.0 4.0 0.00 0.00 0.00 64 1011.8
20260504044423 50 141 2.0 4.0 0.00 0.00 0.00 64 1011.8
20260504044102 50 135 1.0 4.0 0.00 0.00 0.00 64 1012.0
20260504043902 50 133 1.0 4.0 0.00 0.00 0.00 64 1012.0
20260504043802 50 130 2.0 4.0 0.00 0.00 0.00 64 1011.7
20260504043402 50 120 1.0 6.0 0.00 0.00 0.00 64 1011.7
20260504043123 51 123 2.0 6.0 0.00 0.00 0.00 63 1012.0
20260504043002 51 125 2.0 6.0 0.00 0.00 0.00 63 1011.8
20260504042802 51 124 2.0 6.0 0.00 0.00 0.00 63 1012.0
20260504042602 51 135 2.0 7.0 0.00 0.00 0.00 63 1011.9
20260504042402 51 134 2.0 8.0 0.00 0.00 0.00 62 1011.8
20260504042304 51 133 3.0 8.0 0.00 0.00 0.00 62 1011.9
20260504042102 51 129 3.0 8.0 0.00 0.00 0.00 63 1011.9
20260504041823 51 132 3.0 8.0 0.00 0.00 0.00 62 1011.9
20260504041302 51 127 2.0 7.0 0.00 0.00 0.00 63 1012.2
20260504041202 51 129 2.0 7.0 0.00 0.00 0.00 62 1012.0
20260504040802 51 127 2.0 4.0 0.00 0.00 0.00 63 1011.9
20260504040702 51 127 2.0 6.0 0.00 0.00 0.00 62 1011.9
20260504040602 51 127 2.0 6.0 0.00 0.00 0.00 63 1012.0
20260504040502 51 127 2.0 6.0 0.00 0.00 0.00 63 1012.0
20260504040003 51 124 2.0 6.0 0.00 0.00 0.00 62 1011.8
20260504035423 51 127 2.0 4.0 0.00 0.00 0.00 62 1011.9
20260504035304 51 126 2.0 4.0 0.00 0.00 0.00 62 1012.0
20260504035102 51 125 2.0 4.0 0.00 0.00 0.00 62 1012.0
20260504034802 51 130 2.0 4.0 0.00 0.00 0.00 61 1012.0
20260504034723 51 130 2.0 4.0 0.00 0.00 0.00 61 1012.2
20260504034602 51 131 2.0 4.0 0.00 0.00 0.00 61 1012.3
20260504034523 51 131 2.0 4.0 0.00 0.00 0.00 61 1012.3
20260504034423 51 131 2.0 4.0 0.00 0.00 0.00 61 1012.3
20260504034202 51 134 2.0 4.0 0.00 0.00 0.00 61 1012.2
20260504033602 51 132 2.0 6.0 0.00 0.00 0.00 61 1012.2
20260504033502 51 134 2.0 6.0 0.00 0.00 0.00 61 1012.5
20260504033102 51 133 2.0 6.0 0.00 0.00 0.00 61 1012.5
20260504032623 51 136 1.0 4.0 0.00 0.00 0.00 61 1012.5
20260504032223 51 136 2.0 4.0 0.00 0.00 0.00 60 1012.5
20260504032002 51 135 2.0 7.0 0.00 0.00 0.00 60 1012.6
20260504031723 52 135 2.0 7.0 0.00 0.00 0.00 60 1012.5
20260504031602 52 137 2.0 7.0 0.00 0.00 0.00 60 1012.6
20260504031523 52 137 1.0 7.0 0.00 0.00 0.00 60 1012.7
20260504031102 52 136 1.0 7.0 0.00 0.00 0.00 59 1012.6
20260504031002 52 135 1.0 4.0 0.00 0.00 0.00 60 1012.6
20260504030902 52 136 1.0 4.0 0.00 0.00 0.00 60 1012.6
20260504030802 52 139 2.0 4.0 0.00 0.00 0.00 60 1012.5
20260504030602 52 139 1.0 4.0 0.00 0.00 0.00 60 1012.5
20260504030202 52 139 1.0 4.0 0.00 0.00 0.00 59 1012.6
20260504030023 52 144 1.0 7.0 0.00 0.00 0.00 59 1012.6
20260504025802 52 144 1.0 7.0 0.00 0.00 0.00 59 1012.7
20260504025402 52 149 1.0 7.0 0.00 0.00 0.00 59 1012.8
20260504025304 52 153 1.0 7.0 0.00 0.00 0.00 59 1012.8
20260504025223 52 154 1.0 7.0 0.00 0.00 0.00 59 1012.8
20260504025002 52 153 1.0 6.0 0.00 0.00 0.00 59 1012.8
20260504024923 52 156 2.0 6.0 0.00 0.00 0.00 59 1012.8
20260504024802 52 166 2.0 6.0 0.00 0.00 0.00 59 1012.8
20260504024602 52 182 2.0 8.0 0.00 0.00 0.00 59 1012.9
20260504024102 52 198 2.0 8.0 0.00 0.00 0.00 58 1012.9
20260504024002 52 201 2.0 8.0 0.00 0.00 0.00 58 1012.9
20260504023323 52 217 3.0 9.0 0.00 0.00 0.00 57 1013.1
20260504022602 52 219 3.0 10.0 0.00 0.00 0.00 56 1013.2
20260504022402 52 207 2.0 10.0 0.00 0.00 0.00 56 1013.2
20260504021823 52 219 3.0 10.0 0.00 0.00 0.00 54 1013.2
20260504021423 52 222 3.0 10.0 0.00 0.00 0.00 54 1013.0
20260504021102 53 241 4.0 11.0 0.00 0.00 0.00 53 1012.9
20260504020902 53 237 4.0 11.0 0.00 0.00 0.00 53 1013.1
20260504020502 53 230 4.0 11.0 0.00 0.00 0.00 53 1013.0
20260504020402 53 226 4.0 11.0 0.00 0.00 0.00 53 1013.0
20260504020302 53 220 4.0 11.0 0.00 0.00 0.00 53 1013.1
20260504015902 52 189 2.0 9.0 0.00 0.00 0.00 53 1012.8
20260504015802 52 185 2.0 9.0 0.00 0.00 0.00 53 1012.9
20260504015602 50 177 1.0 9.0 0.00 0.00 0.00 55 1012.7
20260504015523 50 160 1.0 9.0 0.00 0.00 0.00 57 1012.7
20260504015202 50 130 0.0 2.0 0.00 0.00 0.00 61 1012.7
20260504015123 50 129 0.0 2.0 0.00 0.00 0.00 60 1012.7
20260504014902 50 128 0.0 2.0 0.00 0.00 0.00 57 1012.6
20260504014702 50 124 0.0 1.0 0.00 0.00 0.00 57 1012.5
20260504014624 50 123 0.0 1.0 0.00 0.00 0.00 56 1012.6
20260504014402 51 119 0.0 1.0 0.00 0.00 0.00 56 1012.4
20260504014323 51 119 0.0 1.0 0.00 0.00 0.00 56 1012.4
20260504014223 51 118 0.0 1.0 0.00 0.00 0.00 56 1012.4
20260504014102 51 117 0.0 1.0 0.00 0.00 0.00 55 1012.4
20260504013602 52 119 0.0 2.0 0.00 0.00 0.00 54 1012.4
20260504013523 52 119 0.0 2.0 0.00 0.00 0.00 54 1012.5
20260504013423 52 120 0.0 2.0 0.00 0.00 0.00 53 1012.4
20260504013302 52 120 0.0 2.0 0.00 0.00 0.00 53 1012.3
20260504012902 52 120 0.0 1.0 0.00 0.00 0.00 54 1012.5
20260504012602 52 133 0.0 2.0 0.00 0.00 0.00 53 1012.3
20260504012502 52 133 0.0 2.0 0.00 0.00 0.00 52 1012.2
20260504012423 52 135 0.0 2.0 0.00 0.00 0.00 53 1012.3
20260504012123 53 132 0.0 2.0 0.00 0.00 0.00 51 1012.0
20260504011902 53 128 0.0 2.0 0.00 0.00 0.00 51 1012.3
20260504011823 53 128 0.0 2.0 0.00 0.00 0.00 51 1012.3
20260504011602 53 134 1.0 4.0 0.00 0.00 0.00 51 1012.3
20260504011102 54 134 1.0 4.0 0.00 0.00 0.00 50 1012.2
20260504011002 54 135 1.0 4.0 0.00 0.00 0.00 50 1012.3
20260504010623 54 131 1.0 2.0 0.00 0.00 0.00 49 1012.5
20260504010502 54 132 1.0 2.0 0.00 0.00 0.00 49 1012.2
20260504010123 54 142 1.0 6.0 0.00 0.00 0.00 48 1012.4
20260504005923 54 144 1.0 6.0 0.00 0.00 0.00 49 1012.4
20260504005804 54 147 1.0 6.0 0.00 0.00 0.00 48 1012.5
20260504005602 55 147 1.0 6.0 0.00 0.00 0.00 48 1012.3
20260504004903 55 140 1.0 3.0 0.00 0.00 0.00 47 1012.2
20260504004602 55 158 1.0 4.0 0.00 0.00 0.00 46 1012.3
20260504004002 56 157 1.0 4.0 0.00 0.00 0.00 45 1012.0
20260504003702 56 155 1.0 4.0 0.00 0.00 0.00 45 1012.2
20260504003602 56 162 1.0 4.0 0.00 0.00 0.00 44 1012.0
20260504003223 56 181 2.0 7.0 0.00 0.00 0.00 44 1012.2
20260504003102 56 180 2.0 7.0 0.00 0.00 0.00 44 1012.2
20260504002902 56 174 3.0 8.0 0.00 0.00 0.00 44 1012.2
20260504002223 57 173 2.0 11.0 0.00 0.00 0.00 44 1012.2
20260504002002 57 182 3.0 11.0 0.00 0.00 0.00 43 1011.9
20260504001823 57 185 2.0 7.0 0.00 0.00 0.00 43 1011.8
20260504001602 57 190 3.0 8.0 0.00 0.00 0.00 43 1012.0
20260504001123 58 207 4.0 15.0 0.00 0.00 0.00 42 1012.3
20260504001002 58 207 4.0 15.0 0.00 0.00 0.00 42 1012.0
20260504000602 58 201 4.0 15.0 0.00 0.00 0.00 41 1012.2
20260504000323 58 183 3.0 15.0 0.00 0.00 0.00 41 1012.2
20260504000002 58 186 3.0 9.0 0.00 0.00 0.00 42 1012.2
20260503235823 58 192 3.0 9.0 0.00 0.00 0.00 41 1011.9
20260503235702 59 203 4.0 9.0 0.00 0.00 0.00 41 1012.2
20260503235602 58 214 4.0 9.0 0.00 0.00 0.00 42 1012.0
20260503235423 58 222 4.0 9.0 0.00 0.00 0.00 41 1012.2
20260503235202 58 228 4.0 9.0 0.00 0.00 0.00 41 1012.2
20260503235102 58 234 4.0 9.0 0.00 0.00 0.00 42 1012.3
20260503234602 58 229 3.0 9.0 0.00 0.00 0.00 41 1012.2
20260503234502 58 219 3.0 9.0 0.00 0.00 0.00 42 1012.3
20260503234102 58 221 3.0 11.0 0.00 0.00 0.00 42 1012.2
20260503234002 58 217 3.0 11.0 0.00 0.00 0.00 42 1012.3
20260503233902 58 224 3.0 11.0 0.00 0.00 0.00 42 1012.3
20260503233602 58 209 3.0 11.0 0.00 0.00 0.00 43 1012.2
20260503233402 58 211 4.0 11.0 0.00 0.00 0.00 43 1012.3
20260503233302 58 213 4.0 11.0 0.00 0.00 0.00 43 1012.3
20260503233102 58 212 4.0 8.0 0.00 0.00 0.00 42 1012.4
20260503233023 58 214 3.0 8.0 0.00 0.00 0.00 42 1012.3
20260503232802 58 212 3.0 8.0 0.00 0.00 0.00 42 1012.3
20260503232323 58 205 3.0 9.0 0.00 0.00 0.00 42 1012.2
20260503231202 58 212 6.0 16.0 0.00 0.00 0.00 42 1012.4
20260503231002 58 212 6.0 16.0 0.00 0.00 0.00 41 1012.3
20260503230902 58 210 5.0 16.0 0.00 0.00 0.00 41 1012.4
20260503230623 59 214 4.0 16.0 0.00 0.00 0.00 41 1012.4
20260503230323 59 198 4.0 10.0 0.00 0.00 0.00 42 1012.4
20260503230202 58 197 4.0 10.0 0.00 0.00 0.00 42 1012.4
20260503225902 58 198 4.0 10.0 0.00 0.00 0.00 42 1012.5
20260503225602 59 200 4.0 10.0 0.00 0.00 0.00 42 1012.3
20260503225402 58 213 4.0 10.0 0.00 0.00 0.00 41 1012.7
20260503225123 58 218 4.0 9.0 0.00 0.00 0.00 42 1012.4
20260503225002 58 215 4.0 9.0 0.00 0.00 0.00 42 1012.5
20260503224902 58 213 4.0 9.0 0.00 0.00 0.00 42 1012.4
20260503224802 58 211 4.0 9.0 0.00 0.00 0.00 41 1012.4
20260503224302 59 206 4.0 13.0 0.00 0.00 0.00 42 1012.4
20260503224202 59 214 4.0 13.0 0.00 0.00 0.00 42 1012.4
20260503223902 59 234 5.0 15.0 0.00 0.00 0.00 42 1012.5
20260503223702 59 228 5.0 15.0 0.00 0.00 0.00 42 1012.6
20260503223602 59 231 5.0 15.0 0.00 0.00 0.00 42 1012.7
20260503223102 60 217 4.0 15.0 0.00 0.00 0.00 41 1012.6
20260503223002 60 213 4.0 14.0 0.00 0.00 0.00 40 1012.7
20260503222602 60 205 5.0 13.0 0.00 0.00 0.00 41 1012.7
20260503222502 60 207 6.0 13.0 0.00 0.00 0.00 40 1012.5
20260503222402 60 212 6.0 13.0 0.00 0.00 0.00 39 1012.5
20260503222102 60 226 7.0 14.0 0.00 0.00 0.00 40 1012.5
20260503221802 59 225 6.0 14.0 0.00 0.00 0.00 40 1012.8
20260503221702 59 227 6.0 14.0 0.00 0.00 0.00 39 1012.8
20260503221623 59 231 7.0 22.0 0.00 0.00 0.00 41 1012.7
20260503221402 59 229 8.0 22.0 0.00 0.00 0.00 40 1012.8
20260503221302 60 227 8.0 22.0 0.00 0.00 0.00 40 1012.7
20260503221102 60 221 7.0 22.0 0.00 0.00 0.00 39 1012.7
20260503221002 59 223 7.0 22.0 0.00 0.00 0.00 40 1012.7
20260503220903 59 231 7.0 22.0 0.00 0.00 0.00 40 1012.9
20260503220702 59 232 8.0 22.0 0.00 0.00 0.00 40 1012.9
20260503220502 59 235 7.0 18.0 0.00 0.00 0.00 40 1012.8
20260503220402 59 237 7.0 18.0 0.00 0.00 0.00 41 1012.6
20260503220323 59 233 7.0 18.0 0.00 0.00 0.00 40 1012.6
20260503220202 59 230 7.0 16.0 0.00 0.00 0.00 41 1012.7
20260503215902 59 223 6.0 16.0 0.00 0.00 0.00 40 1012.8
20260503215602 59 215 5.0 14.0 0.00 0.00 0.00 40 1012.7
20260503215502 59 216 5.0 14.0 0.00 0.00 0.00 41 1012.8
20260503215123 59 216 4.0 14.0 0.00 0.00 0.00 41 1012.8
20260503215023 59 221 4.0 14.0 0.00 0.00 0.00 41 1012.5
20260503214902 59 211 4.0 14.0 0.00 0.00 0.00 41 1012.6
20260503214823 59 211 4.0 14.0 0.00 0.00 0.00 42 1012.7
20260503214702 59 222 4.0 14.0 0.00 0.00 0.00 41 1012.9
20260503214602 59 215 4.0 14.0 0.00 0.00 0.00 42 1012.7
20260503214502 59 210 4.0 14.0 0.00 0.00 0.00 41 1012.5
20260503214402 59 217 4.0 14.0 0.00 0.00 0.00 41 1012.7
20260503214023 59 227 5.0 15.0 0.00 0.00 0.00 41 1012.6
20260503213802 59 217 7.0 18.0 0.00 0.00 0.00 41 1012.6
20260503213723 59 222 7.0 18.0 0.00 0.00 0.00 40 1012.7
20260503213302 59 217 7.0 18.0 0.00 0.00 0.00 40 1012.6
20260503213123 59 213 7.0 18.0 0.00 0.00 0.00 41 1012.6
20260503213002 59 218 7.0 17.0 0.00 0.00 0.00 40 1012.8
20260503212702 60 221 6.0 16.0 0.00 0.00 0.00 40 1012.8
20260503212602 60 222 6.0 16.0 0.00 0.00 0.00 40 1012.6
20260503212402 60 227 6.0 14.0 0.00 0.00 0.00 40 1012.6
20260503212102 59 229 6.0 14.0 0.00 0.00 0.00 40 1012.5
20260503212002 59 230 7.0 14.0 0.00 0.00 0.00 39 1012.6
20260503211902 60 235 6.0 14.0 0.00 0.00 0.00 39 1012.7
20260503211802 59 232 6.0 14.0 0.00 0.00 0.00 40 1012.6
20260503211402 59 233 6.0 14.0 0.00 0.00 0.00 39 1012.7
20260503211202 59 237 6.0 14.0 0.00 0.00 0.00 41 1012.6
20260503211102 60 240 6.0 14.0 0.00 0.00 0.00 39 1012.6
20260503210902 60 234 5.0 13.0 0.00 0.00 0.00 39 1012.6
20260503210702 60 238 5.0 13.0 0.00 0.00 0.00 40 1012.7
20260503210323 61 226 4.0 10.0 0.00 0.00 0.00 39 1012.5
20260503210202 60 224 4.0 10.0 0.00 0.00 0.00 38 1012.3
20260503210002 60 213 4.0 10.0 0.00 0.00 0.00 39 1012.7
20260503205902 60 221 4.0 10.0 0.00 0.00 0.00 39 1012.5
20260503205802 60 221 4.0 10.0 0.00 0.00 0.00 39 1012.5
20260503205602 60 210 4.0 10.0 0.00 0.00 0.00 38 1012.7
20260503205502 60 199 4.0 10.0 0.00 0.00 0.00 40 1012.5
20260503205423 60 210 4.0 10.0 0.00 0.00 0.00 39 1012.5
20260503205304 61 207 5.0 11.0 0.00 0.00 0.00 38 1012.5
20260503205202 61 188 5.0 13.0 0.00 0.00 0.00 39 1012.7
20260503205102 61 193 4.0 13.0 0.00 0.00 0.00 38 1012.7
20260503204902 61 199 5.0 13.0 0.00 0.00 0.00 39 1012.7
20260503204102 61 227 6.0 15.0 0.00 0.00 0.00 39 1012.6
20260503203923 61 223 6.0 15.0 0.00 0.00 0.00 39 1012.4
20260503203623 62 228 6.0 15.0 0.00 0.00 0.00 38 1012.7
20260503203402 62 232 6.0 15.0 0.00 0.00 0.00 38 1012.5
20260503203102 60 216 6.0 15.0 0.00 0.00 0.00 39 1012.7
20260503202902 59 220 7.0 15.0 0.00 0.00 0.00 39 1012.8
20260503202802 59 220 7.0 14.0 0.00 0.00 0.00 39 1012.8
20260503202702 59 217 6.0 14.0 0.00 0.00 0.00 39 1012.7
20260503202423 59 207 6.0 16.0 0.00 0.00 0.00 39 1012.7